Flag for U.S.A. Weather past 2 weeks in Panama City, Florida, U.S.A.

Now
70 °F

Clear.


Feels Like: 64 °F
Forecast: 72 / 88 °F
Wind: 3 mph from North

Location: Tyndall Air Force Base

Current Time: Aug 30, 2015 at 5:19:54 AM

Latest Report: Aug 30, 2015 at 4:58 AM


Visibility: 9 mi

Pressure: 30.02 "Hg

Humidity: 97%

Dew point: 69 °F

Location of Panama CityLocation

Historic Weather in Panama City — Graph

°F

Panama City temperature yesterday

Maximum temperature yesterday: 83 °F (at 1:58 PM)
Minimum temperature yesterday: 73 °F (at 10:58 PM)
Average temperature yesterday: 77 °F

Past Weeks' High & Low Weather Summary

 TemperatureHumidityPressure
High92 °F (Aug 24, 12:58 PM)100% (Aug 17, 11:58 AM)30.13 "Hg (Aug 17, 11:58 AM)
Low69 °F (Aug 27, 6:58 AM)39% (Aug 27, 11:58 AM)29.87 "Hg (Aug 25, 5:58 PM)
Average81 °F79%30.00 "Hg
* Reported Aug 15 3:58 AM — Aug 30 3:58 AM, Panama City, Weather by CustomWeather, © 2015

Note: Actual official high and low records may vary slightly from our data, if they occured in-between our weather recording intervals... More about our weather records

Advertising

Panama City weather history for previous 24 hours

 ConditionsComfort  
Time TempWeatherWind HumidityBarometerVisibility
3:58 AM
Sun, Aug 30
71 °FClear.No wind97%30.01 "Hg10 mi
2:58 AM71 °FClear.3 mph96%30.02 "Hg10 mi
1:58 AM72 °FPassing clouds.No wind96%30.04 "Hg10 mi
12:58 AM73 °FClear.5 mph94%30.05 "Hg10 mi
11:58 PM
Sat, Aug 29
73 °FClear.5 mph94%30.06 "Hg10 mi
10:58 PM73 °FClear.3 mph95%30.07 "Hg10 mi
9:58 PM74 °FClear.No wind91%30.08 "Hg10 mi
8:58 PM75 °FDrizzle. Overcast.3 mph91%30.07 "Hg10 mi
7:58 PM74 °FDrizzle. Overcast.6 mph94%30.05 "Hg10 mi
6:58 PM73 °FLight rain. Fog.3 mph94%30.05 "Hg1 mi
6:03 PM81 °FMostly cloudy.13 mph74%30.02 "Hg1 mi
5:58 PM81 °FMostly cloudy.13 mph74%30.03 "Hg1 mi
4:58 PM82 °FBroken clouds.2 mph74%30.03 "Hg10 mi
3:58 PM83 °FSunny.No wind69%30.04 "Hg10 mi
2:58 PM83 °FPassing clouds.3 mph69%30.05 "Hg10 mi
1:58 PM83 °FScattered clouds.3 mph71%30.08 "Hg10 mi
12:58 PM82 °FScattered clouds.8 mph73%30.10 "Hg10 mi
11:58 AM80 °FPartly sunny.6 mph76%30.12 "Hg10 mi
10:58 AM79 °FPartly sunny.7 mph81%30.11 "Hg10 mi
9:58 AM76 °FPassing clouds.6 mph87%30.12 "Hg10 mi
8:58 AM74 °FSunny.8 mph93%30.12 "Hg10 mi
7:58 AM74 °FScattered clouds.8 mph89%30.11 "Hg10 mi
6:58 AM74 °FScattered clouds.8 mph78%30.07 "Hg10 mi
5:58 AM74 °FThunderstorms. Clear.7 mph88%30.06 "Hg10 mi
Weather by CustomWeather, © 2015

See weather overviewHow to use our weather pages